• In Hungary
  • List of Countries
  • For 7 days
  • Water Temperature
  • Satellite Maps
  • Weather Map
  • News
  • Weather Widgets
  • user-avatar
    Login

    Hourly Weather Pernik

    Today, 20 October, Friday

    Time Temperature Precipitation Wind Pressure Humidity
    00:00 +13°C° 0 mm 1 mps 692 mmHg 55%
    01:00 +13°C° 0 mm 1 mps 692 mmHg 56%
    02:00 +12°C° 0 mm 1 mps 692 mmHg 58%
    03:00 +12°C° 0 mm 1 mps 692 mmHg 58%
    04:00 +12°C° 0 mm 1 mps 692 mmHg 59%
    05:00 +12°C° 0 mm 1 mps 692 mmHg 59%
    06:00 +12°C° 0 mm 1 mps 692 mmHg 59%
    07:00 +13°C° 0 mm 1 mps 692 mmHg 58%
    08:00 +14°C° 0 mm 1 mps 693 mmHg 52%
    09:00 +18°C° 0 mm 1 mps 693 mmHg 47%
    10:00 +18°C° 0 mm 0 mps 694 mmHg 42%
    11:00 +20°C° 0 mm 0 mps 694 mmHg 36%
    12:00 +21°C° 0 mm 0 mps 694 mmHg 34%
    13:00 +21°C° 0 mm 0 mps 694 mmHg 32%
    14:00 +22°C° 0 mm 0 mps 694 mmHg 31%
    15:00 +21°C° 0 mm 0 mps 693 mmHg 35%
    16:00 +19°C° 0 mm 0 mps 693 mmHg 39%
    17:00 +18°C° 0 mm 0 mps 693 mmHg 43%
    18:00 +16°C° 0 mm 0 mps 693 mmHg 46%
    19:00 +15°C° 0 mm 0 mps 693 mmHg 49%
    20:00 +14°C° 0 mm 0 mps 693 mmHg 51%
    21:00 +13°C° 0 mm 0 mps 693 mmHg 53%
    22:00 +14°C° 0 mm 1 mps 693 mmHg 54%
    23:00 +13°C° 0 mm 1 mps 693 mmHg 56%

    Tomorrow, 21 October, Saturday

    Time Temperature Precipitation Wind Pressure Humidity
    00:00 +13°C° 0 mm 1 mps 693 mmHg 57%
    01:00 +12°C° 0 mm 1 mps 693 mmHg 58%
    02:00 +12°C° 0 mm 1 mps 693 mmHg 59%
    03:00 +12°C° 0 mm 1 mps 693 mmHg 60%
    04:00 +12°C° 0 mm 1 mps 692 mmHg 61%
    05:00 +11°C° 0 mm 1 mps 692 mmHg 62%
    06:00 +12°C° 0 mm 1 mps 693 mmHg 61%
    07:00 +12°C° 0 mm 1 mps 693 mmHg 60%
    08:00 +13°C° 0 mm 1 mps 693 mmHg 59%
    09:00 +15°C° 0 mm 1 mps 693 mmHg 52%
    10:00 +19°C° 0 mm 1 mps 694 mmHg 45%
    11:00 +21°C° 0 mm 1 mps 694 mmHg 38%
    12:00 +22°C° 0 mm 1 mps 694 mmHg 36%
    13:00 +22°C° 0 mm 1 mps 694 mmHg 34%
    14:00 +23°C° 0 mm 1 mps 693 mmHg 33%
    15:00 +22°C° 0 mm 1 mps 693 mmHg 37%
    16:00 +20°C° 0 mm 1 mps 692 mmHg 41%
    17:00 +19°C° 0 mm 1 mps 692 mmHg 45%
    18:00 +18°C° 0 mm 1 mps 692 mmHg 49%
    19:00 +15°C° 0 mm 1 mps 692 mmHg 52%
    20:00 +13°C° 0 mm 1 mps 692 mmHg 55%
    21:00 +13°C° 0 mm 1 mps 692 mmHg 57%
    22:00 +13°C° 0 mm 1 mps 692 mmHg 58%
    23:00 +12°C° 0 mm 1 mps 692 mmHg 59%

    Day after tomorrow, 22 October, Sunday

    Time Temperature Precipitation Wind Pressure Humidity
    00:00 +12°C° 0 mm 1 mps 691 mmHg 60%
    01:00 +12°C° 0 mm 1 mps 691 mmHg 60%
    02:00 +11°C° 0 mm 1 mps 691 mmHg 61%
    03:00 +11°C° 0 mm 1 mps 691 mmHg 62%
    04:00 +11°C° 0 mm 1 mps 691 mmHg 63%
    05:00 +10°C° 0 mm 1 mps 690 mmHg 64%
    06:00 +11°C° 0 mm 1 mps 690 mmHg 63%
    07:00 +12°C° 0 mm 1 mps 691 mmHg 63%
    08:00 +12°C° 0 mm 1 mps 691 mmHg 62%
    09:00 +14°C° 0 mm 1 mps 691 mmHg 55%
    10:00 +18°C° 0 mm 1 mps 691 mmHg 47%
    11:00 +20°C° 0 mm 1 mps 692 mmHg 40%
    12:00 +21°C° 0 mm 1 mps 691 mmHg 38%
    13:00 +21°C° 0 mm 1 mps 691 mmHg 36%
    14:00 +22°C° 0 mm 1 mps 691 mmHg 34%
    15:00 +21°C° 0 mm 1 mps 690 mmHg 38%
    16:00 +20°C° 0 mm 1 mps 690 mmHg 42%
    17:00 +18°C° 0 mm 1 mps 689 mmHg 46%
    18:00 +16°C° 0 mm 1 mps 689 mmHg 50%
    19:00 +15°C° 0 mm 1 mps 689 mmHg 53%
    20:00 +13°C° 0 mm 1 mps 689 mmHg 56%
    21:00 +13°C° 0 mm 1 mps 688 mmHg 57%
    22:00 +13°C° 0 mm 1 mps 688 mmHg 58%
    23:00 +12°C° 0 mm 1 mps 688 mmHg 58%

    23 October, Monday

    Time Temperature Precipitation Wind Pressure Humidity
    00:00 +12°C° 0 mm 1 mps 688 mmHg 58%
    01:00 +12°C° 0 mm 1 mps 687 mmHg 57%
    02:00 +12°C° 0 mm 2 mps 687 mmHg 57%
    03:00 +12°C° 0.1 mm 1 mps 687 mmHg 60%
    04:00 +12°C° 0.1 mm 1 mps 686 mmHg 62%
    05:00 +11°C° 0.1 mm 1 mps 686 mmHg 65%
    06:00 +12°C° 0.1 mm 1 mps 685 mmHg 66%
    07:00 +12°C° 0.1 mm 1 mps 685 mmHg 68%
    08:00 +12°C° 0.1 mm 2 mps 685 mmHg 70%
    09:00 +13°C° 0.3 mm 2 mps 685 mmHg 67%
    10:00 +14°C° 0.3 mm 2 mps 685 mmHg 65%
    11:00 +15°C° 0.3 mm 2 mps 685 mmHg 62%
    12:00 +16°C° 0.3 mm 2 mps 685 mmHg 61%
    13:00 +16°C° 0.3 mm 2 mps 684 mmHg 59%
    14:00 +17°C° 0.3 mm 2 mps 684 mmHg 58%
    15:00 +16°C° 1.6 mm 2 mps 684 mmHg 65%
    16:00 +15°C° 1.6 mm 2 mps 683 mmHg 71%
    17:00 +13°C° 1.6 mm 2 mps 683 mmHg 78%
    18:00 +12°C° 1.8 mm 2 mps 683 mmHg 82%
    19:00 +10°C° 1.8 mm 2 mps 683 mmHg 85%
    20:00 +9°C° 1.8 mm 3 mps 683 mmHg 89%
    21:00 +8°C° 0.8 mm 3 mps 683 mmHg 89%
    22:00 +8°C° 0.8 mm 3 mps 683 mmHg 90%
    23:00 +7°C° 0.8 mm 3 mps 683 mmHg 90%

    24 October, Tuesday

    Time Temperature Precipitation Wind Pressure Humidity
    00:00 +7°C° 1.4 mm 3 mps 683 mmHg 90%
    01:00 +7°C° 1.4 mm 3 mps 683 mmHg 90%
    02:00 +5°C° 1.4 mm 3 mps 682 mmHg 90%
    03:00 +5°C° 1.1 mm 3 mps 682 mmHg 90%
    04:00 +6°C° 1.1 mm 2 mps 682 mmHg 90%
    05:00 +6°C° 1.1 mm 2 mps 682 mmHg 90%
    06:00 +6°C° 0.6 mm 2 mps 682 mmHg 90%
    07:00 +5°C° 0.6 mm 3 mps 682 mmHg 89%
    08:00 +5°C° 0.6 mm 3 mps 682 mmHg 89%
    09:00 +5°C° 0.4 mm 3 mps 683 mmHg 87%
    10:00 +7°C° 0.4 mm 3 mps 683 mmHg 85%
    11:00 +7°C° 0.4 mm 3 mps 683 mmHg 83%
    12:00 +8°C° 0.4 mm 3 mps 683 mmHg 83%
    13:00 +7°C° 0.4 mm 4 mps 683 mmHg 82%
    14:00 +7°C° 0.4 mm 4 mps 683 mmHg 81%
    15:00 +7°C° 0.1 mm 4 mps 683 mmHg 82%
    16:00 +8°C° 0.1 mm 3 mps 684 mmHg 84%
    17:00 +8°C° 0.1 mm 3 mps 684 mmHg 85%
    18:00 +7°C° 0.7 mm 3 mps 684 mmHg 87%
    19:00 +7°C° 0.7 mm 3 mps 684 mmHg 89%
    20:00 +7°C° 0.7 mm 3 mps 685 mmHg 92%
    21:00 +7°C° 1.2 mm 3 mps 685 mmHg 91%
    22:00 +7°C° 1.2 mm 3 mps 685 mmHg 91%
    23:00 +6°C° 1.2 mm 4 mps 686 mmHg 91%

    25 October, Wednesday

    Time Temperature Precipitation Wind Pressure Humidity
    00:00 +7°C° 0.4 mm 4 mps 686 mmHg 91%
    01:00 +7°C° 0.4 mm 4 mps 686 mmHg 91%
    02:00 +7°C° 0.4 mm 4 mps 687 mmHg 91%
    03:00 +7°C° 0.2 mm 5 mps 687 mmHg 92%
    04:00 +7°C° 0.2 mm 5 mps 687 mmHg 92%
    05:00 +7°C° 0.2 mm 5 mps 688 mmHg 93%
    06:00 +7°C° 0.1 mm 5 mps 688 mmHg 91%
    07:00 +6°C° 0.1 mm 5 mps 689 mmHg 90%
    08:00 +6°C° 0.1 mm 5 mps 690 mmHg 89%
    09:00 +6°C° 0.1 mm 5 mps 690 mmHg 86%
    10:00 +7°C° 0.1 mm 5 mps 691 mmHg 82%
    11:00 +7°C° 0.1 mm 5 mps 692 mmHg 79%
    12:00 +7°C° 0.1 mm 5 mps 692 mmHg 78%
    13:00 +7°C° 0.1 mm 5 mps 692 mmHg 77%
    14:00 +7°C° 0.1 mm 5 mps 692 mmHg 77%
    15:00 +6°C° 0.3 mm 4 mps 693 mmHg 77%
    16:00 +6°C° 0.3 mm 4 mps 693 mmHg 78%
    17:00 +7°C° 0.3 mm 3 mps 693 mmHg 79%
    18:00 +5°C° 0.3 mm 3 mps 694 mmHg 81%
    19:00 +4°C° 0.3 mm 3 mps 695 mmHg 82%
    20:00 +5°C° 0.3 mm 2 mps 695 mmHg 84%
    21:00 +5°C° 0.1 mm 2 mps 695 mmHg 84%
    22:00 +4°C° 0.1 mm 2 mps 696 mmHg 84%
    23:00 +4°C° 0.1 mm 2 mps 696 mmHg 85%
    Show more